map of RGL home
RGL - Airport
Location
City:  Rio Gallegos, Santa Cruz, Argentina
ICAO:SAWG
IATA:RGL

Details
Type:Airport (Aerodrome, Airfield)
Use:Public/Civil, Military
Latitude:5136'32"S (-51.608874)
Longitude:6918'45"W (-69.312635)
Datum:WGS 1984
Elevation:61 ft (19 m)
Variation:11.22E (WMM2015 magnetic declination)
-0.08 annual change
Runways:1
Longest:11647 × 148 ft (3550 × 45 m), paved

Time
Time Zone:UTC-3
Local Time:

Weather
METAR:SAWG 191500Z 36004KT CAVOK 14/M02 Q1025
TAF:SAWG 191100Z 1912/2012 VRB03KT CAVOK TX14/1920Z TN01/1912Z
BECMG 1914/1914 02015KT
TEMPO 1919/1921 02023KT

Related Locations
Nearby:
Farthest:UICH: 12411 mi / 19974 km
Khilok [Khilok Airport], ZAB, RU

Find:

   beyond  
but within

Other Information
Maps:
NOTAMs:
Links:
Sources:

  
  • flag of Argentina
  

Sectional Chart

Flight Planning
at skyvector.com

Satellite Image

Google Maps Satellite view

 

Copyright © 2004-2018 Karl L. Swartz. All rights reserved.
The Great Circle Mapper name and logo are trademarks of the Great Circle Mapper.
All other trademarks mentioned herein belong to their respective owners.
Please see credits for attibutions and further copyright information.

  Follow gcmap on Facebook Follow gcmap on Twitter Follow gcmap on Google+ GCmap on LinkedIn

hCard Microformat

Geo Microformat